Location: Baix
(44.7118°N, 4.7648°E)
Time: 18:56:14
(UTC+00:00)

Vanguard 3 - Pass Details

Date: 27 November 2020
Orbit: 508 x 3262 km, 33.4° (Epoch: 16 January)

Event Time Altitude Azimuth Distance (km) Brightness Sun altitude
Exits shadow 03:02:37 13° 181° (S) 4,049 10.6 -40.4°
Drops below altitude 10° 03:04:42 10° 172° (S) 4,487 10.9 -40.1°
Sets 03:11:30 0° 154° (SSE) 6,129 11.8 -38.9°
